sat.trackr.live / text

‹ back to catalog

STARLINK-31359

NORAD 58945 · 2024-027Q

PAYLOAD ACTIVE UNKNOWN

§ Identity

Operator
Country
US
Launch date
2024-02-10
Launch site
AFWTR
Launch vehicle
Mass (kg)
RCS (m²)

Purposes: comms

External: N2YO · Heavens-Above · Gunter

§ Orbital elements

Epoch: 2026-09-20T22:11:07.474848Z

Period
93.85 min
Inclination
53.1606°
Eccentricity
0.0001077
Mean motion
15.34393365 rev/d
Perigee alt
462.0 km
Apogee alt
463.5 km
Semi-major
6,840.9 km
B*
-1.2869e-5
RAAN
81.8844°
Arg perigee
102.0888°
Mean anomaly
258.0235°
Rev number
14,780

§ Raw data

STARLINK-313591 58945U 24027Q   26263.92439207 -.00000811  00000+0 -12869-4 0  99922 58945  53.1606  81.8844 0001077 102.0888 258.0235 15.34393365147806

JSON: /api/v1/satellites/58945 · /tle

For live sub-satellite position, see the globe view (requires WebGL).

§ Visibility from observer

Set your observer location to see the next 7 days of passes ≥ 10°. The values pass through the URL so the page stays shareable.

No JS? Fill the form by hand. The geolocation button needs JavaScript.